www.pogodaiklimat.ru

Погода и климат >> Архив погоды >> Россия >> Костромская область >> Шарья


ПОГОДА в Шарье

  • Прогноз погоды в Шарье
  • Монитор погоды в Шарье

АРХИВ ПОГОДЫ в Шарье

Время (UTC), дата Ветер
(напр.,м/с)
 
Видим.   Явления Облачность Т
(С)
Тd
(С)
f
(%)
Тe
(С)
Тes
(С)
Комфортность P
(гПа)
Po
(гПа)
Тmin
(С)
Tmax
(С)
R
(мм)
R24
(мм)
S
(см)
00 14.06 Ю 1 10 км 10/0
[Ci fib]
+2.2 +1.6 96 0 0 1023.6 1007.9
03 14.06 Ю 1 10 км 10/0
[Ac As]
+7.6 +5.7 88 +7 +8 1022.0 1006.6 +1.5
06 14.06 З 1 10 км 10/6 600 м
[Cb cap As trans]
+12.3 +5.2 62 +13 +14 1019.9 1004.8 +1.5
09 14.06 З 2 4000 м слаб. ливневой дождь 10/9 600 м
[Cb cap As op]
+11.4 +5.9 69 +10 +11 1019.2 1004.1
12 14.06 СЗ 3 10 км в посл. час ливневой дождь 10/9 600 м
[Cb cap Ac cuf]
+11.2 +7.3 77 +9 +10 1017.1 1002.0
15 14.06 СЗ 2 10 км {ливн. осадки} 8/1 1000 м
[Sc Ac cuf Ci fib]
+13.2 +7.0 66 +13 +14 1015.3 1000.3 +13.8 0.5
18 14.06 штиль 0 10 км {ливн. осадки} 1/0
[Ac cuf]
+8.7 +6.9 88 +8 +8 1015.2 1000.0
21 14.06 штиль 0 10 км ясно +2.6 +1.9 95 +1 +1 1016.0 1000.4
00 15.06 штиль 0 4000 м дымка 1/0
[Ac trans]
+0.7 +0.2 96 -1 -1 1016.3 1000.6
03 15.06 штиль 0 10 км 6/0
[Ac trans Ci fib]
+7.2 +6.3 94 +6 +9 1015.5 1000.2 -0.1
06 15.06 З 2 20 км 9/0
[Ci fib]
+15.7 +7.5 58 +16 +24 1014.2 999.4 -0.1
09 15.06 СЗ 3 20 км 8/5 1500 м
[Cu med, cong Ci fib]
+18.4 +4.3 39 +19 +24 1013.3 998.6
12 15.06 СЗ 1 20 км 10/9 1000 м
[Cu Sc Ac und]
+18.1 +5.6 44 +19 +20 1011.9 997.2
15 15.06 З 1 20 км 9/9 1000 м
[Sc]
+15.6 +6.8 56 +16 +17 1011.2 996.4 +20.1
18 15.06 З 1 10 км 8/8 1000 м
[Sc]
+12.3 +6.8 69 +12 +12 1011.1 996.1
21 15.06 З 2 10 км 10/10 600 м
[Cb cap]
+12.4 +8.0 75 +12 +12 1010.8 995.8
00 16.06 СЗ 1 10 км 9/9 1000 м
[Sc]
+11.0 +8.5 85 +11 +11 1010.8 995.8
03 16.06 С 1 10 км 10/0
[Ac trans Ci fib]
+12.0 +9.0 82 +12 +14 1011.1 996.1 +9.1
06 16.06 С 2 20 км 8/3 1000 м
[Cu hum Ac trans Ci sp]
+15.2 +4.7 49 +15 +20 1011.5 996.7 +9.1
09 16.06 СЗ 3 20 км 9/3 1000 м
[Cu med, cong Ac trans Ci sp]
+17.3 +2.6 37 +17 +22 1010.8 996.1
12 16.06 СЗ 3 20 км 8/3 1000 м
[Cu hum Ac trans]
+18.6 +3.0 35 +19 +22 1010.6 996.0
15 16.06 СЗ 2 20 км 3/0
[Ac trans]
+18.1 +2.8 36 +19 +21 1010.3 995.6 +19.4
18 16.06 штиль 0 10 км 6/0
[Ac trans]
+10.9 +8.2 83 +10 +10 1010.5 995.5
21 16.06 Ю 1 10 км 10/0
[Ac und]
+12.0 +7.5 74 +12 +12 1009.9 995.0
00 17.06 Ю 1 10 км {ливн. осадки} 10/3 600 м
[Cb cap Ac und]
+11.1 +10.0 93 +11 +11 1009.5 994.5
03 17.06 З 1 20 км 3/0
[Ac trans]
+15.3 +11.9 80 +16 +18 1008.8 994.0 +9.9 3
06 17.06 З 3 20 км 3/0
[Ac trans Ci fib]
+19.9 +11.6 59 +22 +30 комфорт 1008.6 994.1 +9.9
09 17.06 З 3 20 км 10/5 1000 м
[Cb cap Ac und]
+21.9 +11.4 51 +24 +26 комфорт 1008.3 993.9
12 17.06 С 3 10 км слаб. ливневой дождь 9/8 600 м
[Cb cap Ac trans]
+18.9 +13.4 70 +20 +21 1008.9 994.4
15 17.06 С 1 10 км слаб. ливневой дождь 9/6 600 м
[Cb cap Ac trans]
+20.9 +12.8 60 +24 +25 комфорт 1008.7 994.2 +23.6 0.6
18 17.06 штиль 0 10 км {ливн. осадки} 3/0
[Ac trans]
+14.9 +13.2 90 +15 +15 1009.3 994.5
21 17.06 ЮВ 1 10 км 4/0
[Ac trans Ci fib]
+9.1 +8.0 93 +8 +8 1010.0 994.9
00 18.06 ЮВ 2 10 км 10/9 600 м
[Cb cap Ac trans]
+13.2 +5.3 59 +13 +13 1010.1 995.2
03 18.06 Ю 2 10 км 10/10 1000 м
[Sc]
+13.2 +6.5 64 +13 +13 1010.0 995.1 +8.8
06 18.06 Ю 2 10 км 10/0
[Ac trans Ci sp]
+17.4 +11.6 69 +18 +26 1009.5 994.8 +8.8
09 18.06 З 3 20 км 10/3 1000 м
[Cb cap Ci sp]
+23.9 +10.2 42 +25 +32 комфорт 1008.0 993.7
12 18.06 С 4
{12}
20 км 10/8 600 м
[Cb cap Ac trans Ci sp]
+20.7 +10.6 52 +23 +23 комфорт 1007.9 993.5
15 18.06 З 2 20 км {ливн. осадки} 10/6 1000 м
[Cb cap Ac cuf Ci sp]
+19.9 +12.4 62 +22 +23 комфорт 1007.8 993.3 +27.2 0.3
18 18.06 ЮЗ 1 20 км {ливн. осадки} 10/0
[Ac cuf Ci fib]
+15.5 +12.3 81 +16 +16 1008.2 993.5
21 18.06 Ю 1 10 км 8/0
[Ac trans Ci fib]
+12.0 +10.9 93 +12 +12 1008.4 993.5
00 19.06 штиль 0 10 км 3/0
[Ac trans Ci fib]
+8.5 +7.6 94 +8 +8 1009.5 994.4
03 19.06 З 1 10 км 3/0
[Ac trans]
+14.2 +13.1 93 +14 +17 1010.1 995.3 +8.3
06 19.06 СЗ 2 20 км ясно +21.9 +12.4 55 +24 +35 комфорт 1009.9 995.4 +8.3
09 19.06 СЗ 4 20 км 6/6 1000 м
[Cb cap]
+23.2 +12.7 52 +26 +30 жарко 1010.0 995.6
12 19.06 СЗ 3 20 км 5/4 1000 м
[Cu med, cong Ci fib]
+25.4 +11.6 42 +27 +32 жарко 1010.3 996.0
15 19.06 С 2 20 км 10/1 1500 м
[Cu med, cong Ci sp]
+24.4 +10.3 41 +25 +27 комфорт 1010.5 996.1 +25.5
18 19.06 штиль 0 10 км 10/0
[Ac trans Ci sp]
+16.8 +13.6 81 +17 +17 1011.5 996.8
21 19.06 Ю 1 10 км 8/3 1000 м
[Sc Ci fib]
+13.2 +11.1 87 +13 +13 1012.3 997.4
00 20.06 Ю 1 10 км 3/0
[Ci fib]
+10.0 +8.9 93 +9 +9 1012.4 997.3
03 20.06 З 1 10 км 5/0
[Ci fib]
+17.2 +12.1 72 +18 +21 1012.9 998.1 +9.9
06 20.06 З 2 20 км 1/0
[Ci fib]
+23.2 +12.7 52 +26 +36 жарко 1013.0 998.6 +9.9
09 20.06 СЗ 4 20 км 8/3 1000 м
[Cu hum Ac trans Ci sp]
+25.2 +9.9 38 +26 +31 жарко 1012.8 998.5
12 20.06 СЗ 4 20 км 6/3 1000 м
[Cu hum Ac und]
+26.1 +8.9 34 +26 +30 жарко 1012.8 998.6
15 20.06 С 4
{11}
10 км слаб. ливневой дождь 9/6 600 м
[Cb cap Ac trans]
+17.6 +14.4 82 +17 +18 1015.1 1000.4 +26.6 0.2
18 20.06 штиль 0 10 км {ливн. осадки} 8/4 600 м
[Cb cap Ac trans]
+15.8 +14.4 91 +16 +16 1015.2 1000.4
21 20.06 штиль 0 10 км 4/0
[Ac trans]
+11.3 +10.2 93 +11 +11 1016.2 1001.2

 

Местоположение метеостанции Шарья (Костромская область, Россия): широта 58.37 долгота 45.53 высота над уровнем моря 125 м.

В архиве по умолчанию представлена погода в Шарье за последнюю неделю. Архивные данные за месяц целиком и за предыдущие месяцы, начиная с января 2011 года, Вы можете получить, выбрав интересующий диапазон дат из раскрывающегося списка и нажав кнопку "Ввод!".


*Определитесь, кто Вы:
робот инопланетянин человек

Внимание! Время в таблицах - всемирное. Для получения местного времени необходимо прибавить поправку, которая равна 3 ч.

Смотрите также архив погоды в соседних городах и на ближайших метеорологических станциях:

Погода в Мантурово (Костромская область, Россия) (44 км)
Погода в Пыщуге (Костромская область, Россия) (58 км)
Погода в Ветлуге (Нижегородская область, Россия) (60 км)
Погода в Кологриве (Костромская область, Россия) (86 км)
Погода в Шабалино (Кировская область, Россия) (93 км)
Погода в Вохме (Костромская область, Россия) (95 км)
Погода в Шахунье (Нижегородская область, Россия) (102 км)
Погода в Макарьеве (Костромская область, Россия) (116 км)
Погода в Николо-Поломе (Костромская область, Россия) (125 км)
Погода в Никольске (Вологодская область, Россия) (129 км)

Пояснения к столбцам:

Ветер - указаны скорость ветра в м/с - средняя за 10 мин, порывы в срок и между сроками (в фигурных скобках) и направление, откуда дует ветер: С - северный, СВ - северо-восточный, В - восточный, ЮВ - юго-восточный, Ю - южный, ЮЗ - юго-западный, З - западный, СЗ - северо-западный.
Видимость - горизонтальная дальность видимости в метрах или километрах. При видимости от 1 до 10 км при отсутствии осадков обычно наблюдается дымка, при ухудшении видимости до 1 км и менее - туман. В сухую погоду видимость может ухудшаться дымом, пылью или мглою.
Явления - указаны атмосферные явления, наблюдавшиеся в срок или в последний час перед сроком; фигурными скобками обозначены явления, наблюдавшиеся между сроками (за 1-3 часа до срока); квадратными скобками обозначены град или гололедные отложения с указанием их диаметра в мм.
Облачность - указаны через наклонную черту общая и нижняя облачность в баллах и высота нижней границы облаков в метрах; квадратными скобками обозначены формы облаков: Ci - перистые, Cs - перисто-слоистые, Cc - перисто-кучевые, Ac - высококучевые, As - высокослоистые, Sc - слоисто-кучевые, Ns - слоисто-дождевые, Cu - кучевые, Cb - кучево-дождевые. Подробнее классификацию облаков см. в Атласе облаков (PDF).
T - Температура воздуха - температура, измеренная на высоте 2 м над землей.
Td - Температура точки росы - температура, при понижении до которой содержащийся в воздухе водяной пар достигнет насыщения.
f - Относительная влажность воздуха - влажноcть воздуха, измеренная на высоте 2 м над землей.
Te - Эффективная температура - температура, которую ощущает одетый по сезону человек в тени. Характеристика душности погоды. При расчете учитывается влияние влажности воздуха и скорости ветра на теплоощущения человека.
Tes - Эффективная температура на солнце - температура, которую ощущает человек, с поправкой на солнечный нагрев. Характеристика знойности погоды. Зависит от высоты солнца над горизонтом, облачности и скорости ветра. Ночью, в пасмурную погоду, а также при ветре 12 м/с и более поправка равна нулю.
P - Атмосферное давление - приведенное к уровню моря атмосферное давление.
Po - Атмосферное давление - измеренное на уровне метеостанции атмосферное давление.
Tmin - Минимальная температура - минимум температуры воздуха на высоте 2 м над землей.
Tmax - Максимальная температура - максимум температуры воздуха на высоте 2 м над землей.
R - Количество осадков - Количество выпавших осадков за период времени, мм. При наведении курсора мыши на число - период времени, за который выпало указанное количество осадков.
R24 - Количество осадков - Количество выпавших осадков за 24 часа, мм.
S - Снежный покров - Высота снежного покрова, см. При наведении курсора мыши на число - состояние снежного покрова и степень покрытия местности в баллах.